Lid_Strength_Index
4 4 4 3 3 3 3 2 1 1 1 1 0 1 1 1 2 2 2 2 2 2
4 4 5 4 4 3 3 2 2 2 2 1 1 1 1 1 1 1 1 1 2 2
5 5 5 5 5 4 4 2 2 2 3 3 2 2 1 1 1 1 1 2 2 3
6 5 5 6 5 5 4 3 3 2 3 3 3 3 3 3 2 2 2 3 3 3
6 6 6 5 5 5 4 3 2 2 2 2 2 2 3 2 2 2 2 2 3 3
8 8 8 6 6 6 4 3 3 2 1 1 1 2 2 1 2 2 2 2 2 2
8 8 8 7 6 5 4 4 4 3 1 1 1 1 1 1 2 1 2 2 1 2
7 7 7 6 5 5 4 4 4 4 4 3 2 1 2 2 2 2 2 1 1 1
6 6 6 6 6 6 6 6 5 5 5 5 3 4 4 2 3 2 2 2 2 1
6 6 6 6 7 7 7 7 7 7 7 7 6 5 5 4 2 2 2 2 2 2
7 7 7 8 8 8 8 8 7 7 7 7 6 6 7 5 4 3 2 2 2 2
9 10 10 10 11 11 10 9 8 7 7 7 6 6 7 6 4 3 2 1 1 1
11 10 11 11 10 10 10 8 7 7 7 6 6 6 7 6 4 3 2 2 2 4
11 12 11 11 11 11 11 9 9 7 6 6 5 6 7 7 5 3 3 3 2 2